Theta_e
328 327 327 326 326 325 326 325 326 325 327 326 324 321 319 318 316 315 313 311 309 309 308 307 307 308 308 307 308 308 308 308 306 305 306 306 307 306 305 305 304 306 306 306
329 326 325 326 325 325 325 325 325 324 327 323 320 320 319 317 315 313 312 310 309 309 309 307 307 307 307 308 308 308 308 306 307 306 306 306 306 305 305 307 306 306 306 307
334 326 326 330 327 325 324 324 324 324 323 320 321 320 318 316 314 312 311 310 309 309 308 308 308 307 307 308 308 308 309 309 308 306 307 307 307 307 307 306 306 306 306 306
328 328 332 328 326 324 324 325 323 320 321 320 319 318 316 315 313 312 311 310 310 309 309 308 307 307 308 309 309 309 309 308 308 308 307 308 307 307 308 307 308 308 307 307
327 327 327 327 325 324 324 325 323 320 319 319 318 317 314 313 312 311 311 310 309 309 309 308 307 308 308 309 309 309 309 309 308 308 309 310 309 308 309 309 309 306 306 307
325 326 329 328 324 322 323 328 323 319 319 318 317 319 316 313 311 311 310 310 309 309 309 307 308 309 309 308 309 310 310 310 309 310 309 308 308 308 306 307 308 309 310 309
325 325 329 326 323 323 328 329 321 318 318 318 318 316 313 312 311 310 310 310 309 309 308 307 308 309 308 309 309 308 310 309 310 311 310 310 309 309 309 309 310 311 312 311
326 326 333 325 323 324 325 322 319 319 317 317 314 314 311 311 311 309 311 310 309 309 308 309 309 309 309 310 309 311 310 310 311 311 311 310 310 310 311 311 311 312 312 312
326 331 327 324 324 323 322 320 319 318 315 314 314 312 312 311 311 310 311 310 309 309 309 309 309 309 310 310 311 311 311 311 312 312 313 311 311 311 311 312 311 311 311 311
330 325 324 324 323 321 320 319 317 315 314 314 313 312 311 312 311 311 311 310 310 308 310 310 310 310 311 311 311 311 311 312 312 312 312 312 310 308 306 307 309 311 310 310
328 323 324 324 321 320 319 317 315 313 313 313 313 312 312 312 312 311 310 310 310 310 311 311 310 311 311 311 310 311 313 312 312 312 313 310 310 308 305 302 303 305 308 308
327 323 321 321 321 319 318 317 313 313 312 313 312 312 312 312 311 311 310 310 311 311 310 310 312 310 312 312 313 313 312 313 311 312 312 312 311 310 308 306 302 302 302 302
325 323 322 320 319 318 318 315 312 312 312 313 312 312 313 312 312 310 310 311 310 311 311 311 311 311 312 311 311 310 312 312 311 310 312 311 311 311 310 308 306 305 300 298
324 324 324 321 321 318 316 313 311 312 313 313 312 312 313 312 311 309 309 311 309 311 311 312 312 312 311 310 309 311 312 311 312 312 311 311 311 310 309 308 308 306 303 301
324 323 321 321 319 318 316 313 313 313 313 313 312 313 313 312 312 309 309 311 311 311 310 309 309 310 310 312 313 312 311 310 311 313 312 310 310 309 308 308 307 305 303 302
325 325 322 320 320 319 316 314 313 314 312 313 312 313 313 312 312 311 312 311 312 311 310 309 311 313 313 311 312 312 311 310 310 312 310 309 309 308 308 308 307 305 302 300
322 324 324 321 321 319 318 315 314 314 312 312 313 313 313 312 312 312 312 312 313 312 312 312 312 312 312 314 314 313 311 312 310 310 309 309 308 308 308 307 307 306 305 301
318 319 321 322 322 320 319 316 314 314 313 312 313 313 313 312 313 312 312 313 311 312 312 313 313 312 312 313 312 313 312 311 310 309 308 307 308 308 307 306 306 305 305 303
318 318 318 319 321 321 320 317 315 314 313 312 312 313 313 313 313 313 313 313 313 313 312 312 312 309 313 311 309 312 310 310 309 309 308 308 308 307 305 304 304 304 303 303
318 318 318 318 319 320 320 317 315 314 313 312 312 312 313 313 314 314 313 313 313 312 313 313 310 312 313 312 308 311 312 311 311 310 308 308 306 307 306 304 303 303 302 302
318 318 318 319 319 319 319 317 314 314 313 313 312 312 312 313 312 314 314 313 313 314 314 313 311 312 313 311 309 311 312 312 311 311 310 309 308 307 306 305 304 302 302 302
318 318 318 318 318 319 319 315 314 314 313 313 313 312 312 312 311 312 314 314 314 313 313 313 312 312 311 311 311 311 312 311 312 312 313 310 309 308 307 305 304 302 302 301
316 318 317 317 317 318 317 315 313 313 313 313 314 313 312 312 312 312 312 313 314 313 313 312 312 312 313 310 311 312 311 312 312 313 312 312 310 310 308 306 304 303 302 300
315 316 317 316 315 314 315 316 315 314 312 314 314 313 312 311 311 312 311 312 312 313 312 312 312 313 313 311 312 312 312 312 312 311 311 311 310 310 310 307 305 304 303 301
313 314 316 316 315 312 312 313 312 312 312 314 313 312 312 312 312 311 311 312 311 312 311 311 311 312 312 311 312 312 312 312 312 311 312 312 311 311 311 310 307 305 303 302
313 311 312 312 314 314 314 313 312 312 311 312 311 311 311 311 311 311 311 311 311 311 311 312 311 311 310 310 311 311 311 312 312 312 312 312 312 312 312 310 309 307 304 302
311 312 310 312 313 314 314 314 313 312 312 311 311 310 310 311 311 310 311 311 311 311 311 312 312 312 312 311 311 311 311 311 311 312 312 312 312 312 312 311 310 308 306 303
Wind_Speed
5 4 4 3 6 7 10 8 6 10 11 9 10 11 10 10 7 12 11 14 14 11 15 15 13 12 13 13 12 13 14 18 22 16 16 15 12 11 14 10 10 10 7 7
6 3 1 1 3 5 6 6 8 10 6 5 6 8 9 6 11 12 14 13 10 13 13 13 12 11 12 11 12 13 16 15 17 21 21 19 15 13 12 11 9 8 8 8
8 3 6 2 9 10 10 9 9 10 10 9 5 2 6 6 4 8 11 10 10 12 11 10 11 11 10 11 11 12 13 14 14 20 21 20 16 17 18 17 15 12 11 9
4 5 1 7 9 5 10 8 9 11 10 10 10 7 4 6 10 10 9 9 9 10 9 9 10 8 9 10 11 12 12 14 16 19 15 12 11 14 15 16 15 18 20 18
4 2 7 4 10 9 11 6 9 10 11 6 6 2 10 7 7 7 7 7 8 8 8 6 7 7 8 10 10 11 13 14 14 13 13 14 15 14 16 14 16 21 21 21
4 3 4 8 9 11 10 2 7 12 11 12 11 6 6 2 7 7 6 5 7 7 6 6 6 8 9 11 10 10 11 11 10 12 15 21 20 20 24 20 17 15 14 16
3 1 7 9 11 12 5 6 11 10 9 9 8 8 5 7 5 5 4 5 5 5 5 6 6 8 10 10 10 8 8 6 7 9 11 12 17 14 14 14 11 9 12 16
3 3 5 14 8 8 6 5 7 7 8 5 3 4 6 4 3 3 4 4 4 3 3 4 7 9 9 8 7 7 6 7 7 10 11 15 15 16 17 16 18 18 16 16
7 5 6 10 7 5 5 6 7 6 5 3 3 3 5 1 1 2 3 3 3 3 1 4 7 7 7 6 7 7 10 9 7 10 11 16 19 16 14 15 16 16 17 16
5 5 8 5 4 4 5 5 5 4 3 2 3 4 1 0 1 0 2 2 2 3 2 4 6 6 5 6 7 5 7 8 10 11 14 13 15 14 17 14 15 13 15 15
8 11 6 4 5 3 3 4 4 4 3 3 4 2 2 1 1 2 2 2 1 2 3 4 5 5 7 8 7 9 9 7 8 8 9 9 14 14 15 18 12 11 9 9
5 13 10 8 3 2 2 3 3 2 3 3 3 3 2 3 3 2 1 1 1 1 3 4 5 5 6 6 5 5 7 7 9 8 5 8 7 9 13 18 18 14 11 9
6 7 8 6 3 1 1 1 2 2 3 2 3 2 2 4 3 2 2 2 1 2 3 5 6 5 4 5 7 8 6 6 10 9 8 9 8 3 4 13 13 17 18 13
2 4 2 1 2 2 2 2 3 2 2 2 2 2 2 4 2 1 1 1 3 3 5 4 5 3 3 5 5 4 6 8 8 6 8 9 8 8 7 8 9 11 15 17
3 5 4 1 4 4 4 4 2 2 3 3 3 2 2 4 4 4 4 3 4 5 3 5 4 2 1 1 5 6 7 6 7 7 8 6 7 7 7 8 8 8 9 11
10 8 5 4 5 6 6 7 6 4 5 5 5 4 3 4 5 3 4 4 8 8 4 9 3 1 2 1 2 2 4 6 9 8 6 6 6 6 7 7 8 8 8 11
16 10 8 9 9 9 9 9 8 6 7 7 7 6 4 5 4 5 5 6 8 10 9 8 6 3 2 1 2 2 6 6 6 5 5 5 6 6 7 7 7 8 6 13
13 13 12 12 13 13 12 11 9 8 8 8 8 8 7 6 5 6 6 7 9 9 12 10 5 4 2 2 2 3 5 6 5 5 5 6 4 6 6 7 7 6 6 9
15 15 15 14 15 17 15 13 12 10 8 9 10 10 9 7 7 6 6 8 10 12 13 10 9 7 2 3 4 6 4 5 5 5 5 6 5 6 6 6 6 6 6 5
17 17 17 16 14 15 16 12 15 12 12 10 10 11 11 11 9 9 9 10 11 12 12 11 11 7 6 6 6 4 8 3 4 4 6 4 5 5 6 7 7 6 6 5
19 18 16 14 13 13 14 15 17 18 15 12 10 11 12 12 12 11 12 12 13 12 12 12 12 11 9 7 9 7 4 4 4 5 5 5 5 5 5 6 6 6 5 5
16 16 15 15 13 12 9 17 19 20 18 12 11 13 12 13 13 15 14 14 12 16 13 13 12 12 10 9 7 8 7 7 6 7 6 5 5 5 5 5 5 5 5 4
20 16 15 14 12 9 7 11 18 22 20 14 17 16 14 14 15 17 17 16 15 15 13 15 19 19 17 13 11 10 10 8 9 7 7 6 6 6 5 5 5 4 4 4
20 18 13 12 10 11 13 14 14 18 18 18 19 16 14 15 15 16 15 19 15 18 18 15 20 17 19 16 13 13 11 11 10 11 9 8 7 7 7 6 5 5 5 6
22 18 15 14 11 9 8 7 8 9 11 12 11 13 15 15 16 15 16 16 16 15 16 17 22 23 19 20 16 17 16 14 12 12 11 9 10 9 8 8 7 6 5 5
19 21 19 17 16 13 10 7 7 7 8 10 13 14 14 17 14 16 15 14 16 18 15 16 15 15 17 17 17 17 18 17 14 13 12 13 12 11 10 9 9 8 6 6
17 20 20 18 13 15 14 12 13 12 13 12 12 11 11 13 13 13 15 14 15 17 15 16 17 18 16 16 17 18 16 16 17 15 15 11 12 12 11 11 10 9 8 7
Wind_Direction
48 41 31 48 34 32 10 16 342 354 35 25 11 10 16 17 352 1 5 6 10 17 360 357 6 9 10 10 15 14 8 355 16 18 20 16 10 11 28 40 34 47 30 38
150 115 30 89 93 0 25 358 348 354 37 8 31 338 18 5 7 347 11 16 31 4 359 6 9 11 12 13 19 8 6 23 11 34 36 35 36 31 43 44 44 45 44 38
183 91 246 36 22 6 355 355 12 353 3 355 56 74 37 54 340 353 26 16 20 2 4 10 15 4 18 22 11 17 18 17 18 38 34 35 41 49 55 57 53 47 51 50
36 251 209 72 45 347 343 46 25 2 7 0 354 353 45 23 12 21 13 25 7 3 10 9 2 33 22 20 21 16 16 12 21 23 28 26 32 41 45 46 41 51 62 62
302 190 99 149 46 2 344 26 39 358 344 351 332 325 68 47 33 41 42 15 6 6 12 17 41 22 19 14 10 5 8 11 21 26 29 26 34 43 43 41 65 73 67 57
347 292 39 64 25 347 314 176 6 352 348 346 336 330 119 99 66 50 33 21 17 12 52 46 29 15 1 4 4 6 9 8 31 39 51 60 60 70 86 71 73 59 48 46
85 266 92 32 348 317 295 29 358 355 356 352 4 23 54 76 62 34 26 28 26 34 55 36 13 357 357 359 0 9 12 30 40 53 43 42 54 56 47 37 33 41 52 52
276 283 82 9 0 7 9 2 354 6 360 25 39 75 86 91 32 29 27 37 37 51 36 11 352 358 355 5 34 25 38 65 65 60 50 54 52 48 39 46 55 56 58 61
7 53 43 23 46 30 15 21 8 10 24 37 68 85 114 57 34 5 19 49 38 355 21 9 352 12 15 39 54 74 72 74 75 72 55 51 45 46 46 40 46 47 50 57
136 67 27 61 39 34 32 35 28 42 28 47 80 100 49 75 352 96 56 41 51 354 42 9 10 26 54 78 97 76 84 77 64 48 55 52 50 41 40 38 32 38 44 37
41 20 65 108 42 54 56 46 45 32 65 84 90 88 81 26 79 126 85 97 78 103 30 35 38 70 73 100 92 76 81 56 72 56 64 47 39 52 41 33 31 36 50 28
39 31 2 34 68 96 65 37 31 67 97 78 87 102 56 59 98 118 83 143 166 123 324 88 98 94 86 89 68 62 75 76 57 37 6 26 355 6 39 32 34 34 30 28
37 31 50 62 84 73 58 57 71 95 134 121 105 101 92 112 116 188 119 16 112 126 98 119 117 114 72 73 57 71 49 40 53 24 18 7 17 32 10 22 24 21 21 25
62 351 47 316 23 166 152 144 118 110 146 157 155 147 162 154 159 151 133 316 149 154 129 137 135 110 92 69 80 75 45 31 18 1 9 10 20 28 28 28 24 12 8 18
315 327 318 310 167 179 181 176 174 189 193 194 195 194 207 205 206 236 247 215 174 173 145 159 182 213 136 86 27 27 25 6 352 349 353 19 20 24 24 23 22 19 12 14
312 283 282 260 244 219 211 210 218 210 209 211 204 212 234 214 210 222 209 186 176 179 173 171 172 126 137 148 82 15 357 1 351 337 17 19 18 18 19 17 15 12 13 16
6 340 289 273 261 251 244 240 239 226 210 209 206 197 218 210 211 232 231 213 206 198 203 199 195 177 144 41 360 342 343 316 336 358 12 9 9 11 12 12 12 11 1 13
349 342 321 295 275 267 249 242 237 226 218 210 210 208 208 214 226 246 221 209 197 204 199 195 194 201 211 288 319 326 317 340 358 1 1 1 11 9 7 7 7 9 12 352
335 328 321 309 286 266 253 234 231 223 219 211 205 213 219 229 233 229 219 208 193 189 196 202 216 202 251 261 247 314 335 346 1 357 349 358 8 358 359 1 6 4 8 7
333 328 321 311 297 268 254 233 218 215 208 212 213 221 220 226 227 233 213 217 206 206 205 213 218 216 241 255 264 302 319 314 342 351 3 3 350 359 358 2 11 2 3 5
334 331 325 317 305 283 236 229 218 207 204 207 219 227 228 230 231 230 226 219 222 222 225 227 210 229 242 246 262 282 292 313 292 330 329 332 338 343 347 350 349 354 359 1
332 333 335 334 313 305 253 228 217 210 206 207 224 234 236 232 240 237 240 236 230 224 230 223 232 239 241 250 245 275 261 266 292 290 322 323 320 324 325 333 337 344 347 348
332 326 324 327 320 293 259 239 221 217 211 227 232 232 240 239 239 240 241 240 236 245 223 234 239 242 251 251 253 274 261 257 273 278 300 300 305 309 308 298 305 319 327 328
333 325 319 319 313 300 264 253 228 213 215 235 232 237 240 244 243 243 240 242 241 232 237 233 245 247 254 245 255 267 258 266 260 264 269 281 287 290 294 293 296 295 305 334
346 330 319 315 307 312 298 238 205 210 221 247 231 240 244 245 239 243 243 247 245 248 243 241 231 239 250 248 253 260 263 256 253 270 265 275 276 276 279 279 281 273 279 290
334 345 329 314 307 269 261 244 215 214 214 229 240 239 241 239 236 248 252 254 246 250 244 237 237 244 250 246 249 257 264 248 253 262 268 270 265 274 273 270 271 284 277 271
333 333 331 328 311 308 310 248 243 256 254 246 252 245 241 239 244 246 248 246 241 242 246 237 240 244 246 246 251 251 258 258 242 255 257 258 261 271 270 262 261 263 266 268